This is the latest recevied weather packets stored in our database for station/object KE5VT. If no packets are shown the sender has not sent any weather packets the latest 10 day(s).
| Time | Temp. | Humidity | Pressure | Rain* | Wind** | Luminosity | Snow |
|---|---|---|---|---|---|---|---|
| 1777304313 | 13.89° C | 73% | 1019.4 hPa | 0 mm | - | 679 W/m² | - |
| 1777304010 | 13.89° C | 73% | 1019.4 hPa | 0 mm | - | 128 W/m² | - |
| 1777303707 | 13.89° C | 73% | 1019.4 hPa | 0 mm | - | 180 W/m² | - |
| 1777303404 | 13.89° C | 72% | 1019.4 hPa | 0 mm | - | 87 W/m² | - |
| 1777303102 | 14.44° C | 74% | 1019.5 hPa | 0 mm | - | 124 W/m² | - |
| 1777302800 | 13.89° C | 74% | 1019.3 hPa | 0 mm | - | 136 W/m² | - |
| 1777302497 | 13.89° C | 74% | 1019.6 hPa | 0 mm | - | 93 W/m² | - |
| 1777302195 | 13.33° C | 74% | 1019.8 hPa | 0 mm | - | 199 W/m² | - |
| 1777301892 | 13.33° C | 76% | 1019.7 hPa | 0 mm | - | 468 W/m² | - |
| 1777301589 | 12.78° C | 75% | 1019.6 hPa | 0 mm | - | 179 W/m² | - |
| 1777301286 | 12.78° C | 76% | 1019.7 hPa | 0 mm | - | 156 W/m² | - |
| 1777300983 | 12.78° C | 76% | 1019.7 hPa | 0 mm | - | 155 W/m² | - |
| 1777300681 | 12.78° C | 76% | 1019.7 hPa | 0 mm | - | 165 W/m² | - |
| 1777300378 | 12.78° C | 76% | 1019.8 hPa | 0 mm | - | 154 W/m² | - |
| 1777300075 | 12.78° C | 76% | 1019.9 hPa | 0 mm | - | 161 W/m² | - |
| 1777299772 | 12.78° C | 76% | 1020 hPa | 0 mm | - | 163 W/m² | - |
| 1777299469 | 12.78° C | 78% | 1019.7 hPa | 0 mm | - | 172 W/m² | - |
| 1777299167 | 12.22° C | 76% | 1019.8 hPa | 0 mm | - | 159 W/m² | - |
| 1777298864 | 12.22° C | 77% | 1019.9 hPa | 0 mm | - | 156 W/m² | - |
| 1777298561 | 12.22° C | 77% | 1019.9 hPa | 0 mm | - | 144 W/m² | - |
| 1777298257 | 12.22° C | 78% | 1019.8 hPa | 0 mm | - | 131 W/m² | - |
| 1777297953 | 12.22° C | 78% | 1019.9 hPa | 0 mm | - | 129 W/m² | - |
| 1777297649 | 11.67° C | 77% | 1019.7 hPa | 0 mm | - | 123 W/m² | - |
| 1777297347 | 11.67° C | 77% | 1019.7 hPa | 0 mm | - | 114 W/m² | - |
| 1777297044 | 11.67° C | 78% | 1019.7 hPa | 0 mm | - | 113 W/m² | - |
* Rain latest hour (hover to see other rain measurements)
** Current wind speed in m/s (hover to see current wind gust speed)